Charleston, WV

5:00 PM EDT on June 22, 2017 (GMT -0400)
Yeager Airport

Weather History for KCRW - December, 2012

Change the Weather History Date:

Saturday, December 29, 2012

  Actual Average Record
Temperature  
Mean Temperature 35 °F 35 °F  
Max Temperature 39 °F 43 °F 75 °F (1984)
Min Temperature 30 °F 27 °F 4 °F (1925)
Degree Days  
Heating Degree Days 30 30  
Month to date heating degree days 610 796  
Since 1 July heating degree days 1649 1680  
Cooling Degree Days 0 0  
Month to date cooling degree days 0 0  
Year to date cooling degree days 1348 1096  
Moisture  
Dew Point 30 °F    
Average Humidity 88    
Maximum Humidity 96    
Minimum Humidity 79    
Precipitation  
Precipitation 0.32 in 0.10 in 1.25 in (1942)
Month to date precipitation 4.82 3.08  
Year to date precipitation 41.44 43.84  
Snow  
Snow 0.50 in - - ()
Month to date snowfall 1.9  
Since 1 September snowfall 12.0  
Snow Depth 0.00 in    
Sea Level Pressure  
Sea Level Pressure 29.83 in    
Wind  
Wind Speed 10 mph (West)    
Max Wind Speed 22 mph    
Max Gust Speed 29 mph    
Visibility 6 miles    
Events Rain , Snow    
T = Trace of Precipitation, MM = Missing Value Source: NWS Daily Summary

Daily Weather History Graph

Daily Weather History Graph

Search for Another Location

Airport or City:

Trip Planner

Search our weather history database for the weather conditions in past years. The results will help you decide how hot, cold, wet, or windy it might be!

Date:

Astronomy

Dec. 29, 2012 Rise Set
Actual Time 7:42 AM EST 5:14 PM EST
Civil Twilight 7:13 AM EST 5:44 PM EST
Nautical Twilight 6:40 AM EST 6:17 PM EST
Astronomical Twilight 6:08 AM EST 6:49 PM EST
Moon 6:44 PM EST (12/29) 8:16 AM EST (12/29)
Length of Visible Light 10h 30m
Length of Day
9h 31m
Full, 98% of the Moon is Illuminated
Dec 29
Full
Jan 4
Last Quarter
Jan 11
New
Jan 18
First Quarter
Jan 26
Full

Hourly Weather History & Observations

Time (EST) Temp. Windchill Dew Point Humidity Pressure Visibility Wind Dir Wind Speed Gust Speed Precip Events Conditions
12:54 AM 35.1 °F 32.2 °F 30.0 °F 82% 29.81 in 6.0 mi East 3.5 mph - 0.00 in Snow Light Snow
1:54 AM 34.0 °F 28.8 °F 30.9 °F 89% 29.75 in 8.0 mi ENE 5.8 mph - 0.01 in Rain Light Rain
2:54 AM 34.0 °F 29.8 °F 32.0 °F 92% 29.70 in 6.0 mi NNE 4.6 mph - 0.04 in Rain Light Rain
3:32 AM 33.8 °F - 32.0 °F 93% 29.72 in 5.0 mi Calm Calm - 0.02 in Rain , Snow Rain
3:47 AM 33.8 °F - 32.0 °F 93% 29.71 in 4.0 mi Calm Calm - 0.04 in Rain , Snow Rain
3:54 AM 34.0 °F - 32.0 °F 92% 29.72 in 4.0 mi Calm Calm - 0.05 in Rain , Snow Light Rain
4:23 AM 33.8 °F 27.7 °F 32.0 °F 93% 29.68 in 4.0 mi SE 6.9 mph - 0.02 in Rain Light Freezing Rain
4:44 AM 33.8 °F - 32.0 °F 93% 29.68 in 4.0 mi Calm Calm - 0.04 in Rain Rain
4:54 AM 34.0 °F - 33.1 °F 96% 29.70 in 5.0 mi Calm Calm - 0.05 in Rain Light Rain
5:15 AM 35.6 °F 31.7 °F 33.8 °F 93% 29.68 in 5.0 mi South 4.6 mph - 0.04 in Rain Light Rain
5:54 AM 36.0 °F 29.0 °F 34.0 °F 93% 29.69 in 6.0 mi SSE 9.2 mph - 0.07 in Rain Light Rain
6:54 AM 39.0 °F 32.3 °F 34.0 °F 82% 29.69 in 8.0 mi SSW 10.4 mph - 0.01 in Rain Light Rain
7:14 AM 39.2 °F 30.8 °F 33.8 °F 81% 29.68 in 8.0 mi SSW 15.0 mph 20.7 mph 0.01 in Rain Light Rain
7:54 AM 39.0 °F 31.0 °F 34.0 °F 82% 29.70 in 10.0 mi SW 13.8 mph 19.6 mph 0.02 in Rain Light Rain
8:54 AM 37.9 °F 30.9 °F 34.0 °F 86% 29.71 in 9.0 mi SW 10.4 mph - 0.01 in Rain Light Rain
9:54 AM 37.9 °F 30.5 °F 34.0 °F 86% 29.74 in 7.0 mi WSW 11.5 mph 19.6 mph 0.00 in Rain Light Rain
10:54 AM 37.0 °F 28.5 °F 32.0 °F 82% 29.77 in 9.0 mi WSW 13.8 mph 25.3 mph 0.01 in   Overcast
11:24 AM 35.6 °F 28.6 °F 32.0 °F 87% 29.76 in 7.0 mi West 9.2 mph 18.4 mph 0.00 in Rain Light Rain
11:54 AM 36.0 °F 28.5 °F 32.0 °F 86% 29.79 in 7.0 mi West 10.4 mph 24.2 mph 0.00 in Rain Light Rain
12:54 PM 35.1 °F 26.4 °F 30.9 °F 85% 29.81 in 9.0 mi West 12.7 mph 18.4 mph 0.00 in   Overcast
1:54 PM 34.0 °F 26.0 °F 30.0 °F 85% 29.82 in 9.0 mi WNW 10.4 mph 25.3 mph 0.00 in Rain , Snow Light Snow
2:36 PM 33.8 °F 24.8 °F 28.4 °F 81% 29.82 in 6.0 mi West 12.7 mph 23.0 mph 0.00 in Rain , Snow Light Snow
2:54 PM 34.0 °F 25.0 °F 28.9 °F 82% 29.85 in 5.0 mi West 12.7 mph 24.2 mph 0.00 in Rain , Snow Light Snow
3:54 PM 33.1 °F 24.9 °F 28.0 °F 82% 29.88 in 5.0 mi WNW 10.4 mph 24.2 mph 0.01 in Rain , Snow Light Snow
4:54 PM 33.1 °F 23.4 °F 28.9 °F 85% 29.92 in 4.0 mi West 13.8 mph 18.4 mph 0.00 in Rain , Snow Light Snow
5:13 PM 33.8 °F 27.0 °F 28.4 °F 81% 29.90 in 2.0 mi West 8.1 mph 20.7 mph 0.00 in Snow Light Snow
5:54 PM 32.0 °F 23.6 °F 28.0 °F 85% 29.96 in 2.0 mi West 10.4 mph 20.7 mph 0.01 in Snow Light Snow
6:06 PM 32.0 °F 24.8 °F 28.4 °F 87% 29.94 in 2.0 mi West 8.1 mph 17.3 mph 0.00 in Rain , Snow Light Freezing Rain
6:54 PM 30.9 °F 22.2 °F 27.0 °F 85% 29.99 in 6.0 mi West 10.4 mph 20.7 mph 0.01 in Snow Light Snow
7:54 PM 30.9 °F 22.2 °F 27.0 °F 85% 30.01 in 5.0 mi West 10.4 mph 19.6 mph 0.00 in Snow Light Snow
8:22 PM 30.2 °F 22.6 °F 26.6 °F 86% 29.99 in 5.0 mi WNW 8.1 mph 19.6 mph 0.00 in Snow Light Snow
8:54 PM 30.9 °F 24.3 °F 27.0 °F 85% 30.03 in 4.0 mi WSW 6.9 mph - 0.01 in Snow Light Snow
9:27 PM 30.2 °F 21.9 °F 28.4 °F 93% 30.02 in 2.0 mi WSW 9.2 mph - 0.00 in Snow Light Snow
9:54 PM 30.9 °F 22.2 °F 27.0 °F 85% 30.04 in 2.0 mi West 10.4 mph 17.3 mph 0.00 in Snow Light Snow
10:54 PM 30.9 °F 22.8 °F 27.0 °F 85% 30.07 in 2.0 mi West 9.2 mph 16.1 mph 0.01 in Snow Light Snow
11:54 PM 30.9 °F 19.1 °F 26.1 °F 82% 30.11 in 2.0 mi NW 18.4 mph 28.8 mph 0.00 in Snow Light Snow